When you browse on this site, cookies collect data to enhance your experience and personalize the content and advertising you see.
Visit our Privacy Policy to learn more. By continuing to use the site, you agree to this use of cookies and data.
  • In Schweiz
  • Länderverzeichnis
  • Für 7 Tage
  • Wassertemperatur
  • Wetterkarte
  • Widgets
  • user-avatar
    Anmelden

    Stündliche Wetter Mingachevir

    Heute, 25 Mai, Montag

    Zeit Temperatur Niederschläge Wind Luftdruck Luftfeuchtigkeit
    00:00 +15°C° 0.2 mm 2 m/S 756 mmHg 76%
    01:00 +15°C° 0 mm 2 m/S 756 mmHg 77%
    02:00 +14°C° 0 mm 3 m/S 756 mmHg 77%
    03:00 +13°C° 0 mm 3 m/S 756 mmHg 80%
    04:00 +14°C° 0 mm 3 m/S 756 mmHg 78%
    05:00 +14°C° 0 mm 4 m/S 756 mmHg 77%
    06:00 +15°C° 0 mm 5 m/S 756 mmHg 75%
    07:00 +16°C° 0 mm 5 m/S 756 mmHg 69%
    08:00 +19°C° 0 mm 6 m/S 756 mmHg 63%
    09:00 +21°C° 0 mm 7 m/S 755 mmHg 55%
    10:00 +22°C° 0 mm 8 m/S 755 mmHg 51%
    11:00 +23°C° 0 mm 8 m/S 755 mmHg 48%
    12:00 +24°C° 0 mm 8 m/S 754 mmHg 45%
    13:00 +23°C° 0.1 mm 8 m/S 753 mmHg 45%
    14:00 +23°C° 0.1 mm 7 m/S 752 mmHg 45%
    15:00 +23°C° 0.1 mm 7 m/S 752 mmHg 45%
    16:00 +23°C° 0.1 mm 7 m/S 751 mmHg 47%
    17:00 +22°C° 0.1 mm 7 m/S 751 mmHg 49%
    18:00 +22°C° 0.1 mm 7 m/S 751 mmHg 51%
    19:00 +20°C° 0 mm 6 m/S 751 mmHg 56%
    20:00 +19°C° 0 mm 4 m/S 751 mmHg 61%
    21:00 +18°C° 0 mm 3 m/S 752 mmHg 65%
    22:00 +17°C° 0 mm 2 m/S 752 mmHg 68%
    23:00 +17°C° 0 mm 2 m/S 752 mmHg 70%

    Morgen, 26 Mai, Dienstag

    Zeit Temperatur Niederschläge Wind Luftdruck Luftfeuchtigkeit
    00:00 +16°C° 0 mm 1 m/S 752 mmHg 73%
    01:00 +16°C° 0 mm 3 m/S 752 mmHg 73%
    02:00 +16°C° 0 mm 5 m/S 752 mmHg 73%
    03:00 +16°C° 0 mm 6 m/S 752 mmHg 73%
    04:00 +16°C° 0 mm 7 m/S 753 mmHg 68%
    05:00 +17°C° 0 mm 8 m/S 753 mmHg 64%
    06:00 +18°C° 0 mm 9 m/S 753 mmHg 60%
    07:00 +21°C° 0 mm 9 m/S 753 mmHg 53%
    08:00 +23°C° 0 mm 9 m/S 753 mmHg 47%
    09:00 +24°C° 0 mm 9 m/S 753 mmHg 41%
    10:00 +27°C° 0 mm 9 m/S 753 mmHg 38%
    11:00 +28°C° 0 mm 9 m/S 753 mmHg 35%
    12:00 +31°C° 0 mm 8 m/S 753 mmHg 32%
    13:00 +30°C° 0 mm 7 m/S 753 mmHg 30%
    14:00 +32°C° 0 mm 6 m/S 753 mmHg 29%
    15:00 +33°C° 0 mm 5 m/S 753 mmHg 27%
    16:00 +32°C° 0 mm 4 m/S 754 mmHg 29%
    17:00 +30°C° 0 mm 3 m/S 754 mmHg 32%
    18:00 +30°C° 0 mm 2 m/S 755 mmHg 34%
    19:00 +27°C° 0 mm 3 m/S 755 mmHg 43%
    20:00 +23°C° 0 mm 5 m/S 756 mmHg 52%
    21:00 +20°C° 0 mm 6 m/S 756 mmHg 61%
    22:00 +20°C° 0 mm 5 m/S 756 mmHg 63%
    23:00 +19°C° 0 mm 4 m/S 757 mmHg 65%

    übermorgen, 27 Mai, Mittwoch

    Zeit Temperatur Niederschläge Wind Luftdruck Luftfeuchtigkeit
    00:00 +18°C° 0 mm 4 m/S 757 mmHg 66%
    01:00 +18°C° 0 mm 3 m/S 757 mmHg 68%
    02:00 +18°C° 0 mm 3 m/S 756 mmHg 70%
    03:00 +17°C° 0 mm 2 m/S 756 mmHg 72%
    04:00 +18°C° 0 mm 2 m/S 756 mmHg 69%
    05:00 +18°C° 0 mm 2 m/S 757 mmHg 67%
    06:00 +20°C° 0 mm 1 m/S 757 mmHg 65%
    07:00 +21°C° 0 mm 2 m/S 757 mmHg 59%
    08:00 +23°C° 0 mm 2 m/S 757 mmHg 53%
    09:00 +25°C° 0 mm 2 m/S 757 mmHg 47%
    10:00 +26°C° 0 mm 3 m/S 756 mmHg 44%
    11:00 +28°C° 0 mm 3 m/S 756 mmHg 41%
    12:00 +29°C° 0 mm 3 m/S 756 mmHg 37%
    13:00 +29°C° 0 mm 3 m/S 755 mmHg 36%
    14:00 +30°C° 0 mm 3 m/S 755 mmHg 35%
    15:00 +31°C° 0 mm 2 m/S 754 mmHg 34%
    16:00 +30°C° 0 mm 2 m/S 754 mmHg 35%
    17:00 +30°C° 0 mm 2 m/S 754 mmHg 37%
    18:00 +29°C° 0 mm 2 m/S 754 mmHg 39%
    19:00 +28°C° 0 mm 2 m/S 754 mmHg 43%
    20:00 +26°C° 0 mm 1 m/S 755 mmHg 47%
    21:00 +25°C° 0 mm 1 m/S 755 mmHg 51%
    22:00 +24°C° 0 mm 2 m/S 755 mmHg 54%
    23:00 +23°C° 0 mm 2 m/S 754 mmHg 57%

    28 Mai, Donnerstag

    Zeit Temperatur Niederschläge Wind Luftdruck Luftfeuchtigkeit
    00:00 +21°C° 0 mm 2 m/S 754 mmHg 60%
    01:00 +22°C° 0 mm 1 m/S 754 mmHg 61%
    02:00 +21°C° 0 mm 1 m/S 753 mmHg 62%
    03:00 +18°C° 0 mm 0 m/S 753 mmHg 64%
    04:00 +19°C° 0 mm 0 m/S 753 mmHg 62%
    05:00 +20°C° 0 mm 0 m/S 753 mmHg 60%
    06:00 +20°C° 0 mm 0 m/S 753 mmHg 58%
    07:00 +22°C° 0 mm 0 m/S 753 mmHg 54%
    08:00 +26°C° 0 mm 1 m/S 753 mmHg 50%
    09:00 +27°C° 0 mm 1 m/S 752 mmHg 46%
    10:00 +29°C° 0 mm 1 m/S 752 mmHg 43%
    11:00 +30°C° 0 mm 1 m/S 751 mmHg 40%
    12:00 +31°C° 0 mm 2 m/S 751 mmHg 37%
    13:00 +32°C° 0 mm 2 m/S 750 mmHg 35%
    14:00 +34°C° 0 mm 2 m/S 750 mmHg 34%
    15:00 +35°C° 0 mm 2 m/S 749 mmHg 33%
    16:00 +34°C° 0 mm 2 m/S 749 mmHg 35%
    17:00 +34°C° 0 mm 2 m/S 749 mmHg 38%
    18:00 +33°C° 0 mm 3 m/S 749 mmHg 40%
    19:00 +30°C° 0 mm 3 m/S 750 mmHg 45%
    20:00 +29°C° 0 mm 3 m/S 750 mmHg 50%
    21:00 +27°C° 0 mm 3 m/S 750 mmHg 54%
    22:00 +26°C° 0 mm 3 m/S 750 mmHg 55%
    23:00 +25°C° 0 mm 3 m/S 750 mmHg 56%

    29 Mai, Freitag

    Zeit Temperatur Niederschläge Wind Luftdruck Luftfeuchtigkeit
    00:00 +24°C° 0 mm 3 m/S 750 mmHg 57%
    01:00 +23°C° 0 mm 2 m/S 749 mmHg 58%
    02:00 +23°C° 0 mm 2 m/S 749 mmHg 60%
    03:00 +22°C° 0 mm 1 m/S 749 mmHg 61%
    04:00 +22°C° 0 mm 1 m/S 749 mmHg 60%
    05:00 +23°C° 0 mm 1 m/S 748 mmHg 59%
    06:00 +24°C° 0 mm 1 m/S 748 mmHg 58%
    07:00 +25°C° 0 mm 1 m/S 748 mmHg 54%
    08:00 +27°C° 0 mm 1 m/S 748 mmHg 49%
    09:00 +28°C° 0 mm 1 m/S 747 mmHg 44%
    10:00 +30°C° 0 mm 2 m/S 747 mmHg 40%
    11:00 +33°C° 0 mm 3 m/S 746 mmHg 36%
    12:00 +35°C° 0 mm 3 m/S 746 mmHg 32%
    13:00 +36°C° 0 mm 4 m/S 745 mmHg 31%
    14:00 +37°C° 0 mm 4 m/S 745 mmHg 30%
    15:00 +38°C° 0 mm 4 m/S 744 mmHg 29%
    16:00 +37°C° 0 mm 4 m/S 744 mmHg 32%
    17:00 +36°C° 0 mm 5 m/S 744 mmHg 36%
    18:00 +35°C° 0 mm 5 m/S 744 mmHg 40%
    19:00 +33°C° 0 mm 5 m/S 745 mmHg 44%
    20:00 +30°C° 0 mm 4 m/S 745 mmHg 49%
    21:00 +28°C° 0 mm 4 m/S 746 mmHg 54%
    22:00 +27°C° 0 mm 4 m/S 746 mmHg 57%
    23:00 +26°C° 0 mm 4 m/S 746 mmHg 60%

    30 Mai, Samstag

    Zeit Temperatur Niederschläge Wind Luftdruck Luftfeuchtigkeit
    00:00 +25°C° 0 mm 4 m/S 746 mmHg 62%
    01:00 +24°C° 0 mm 6 m/S 746 mmHg 59%
    02:00 +24°C° 0 mm 8 m/S 746 mmHg 55%
    03:00 +23°C° 0 mm 10 m/S 746 mmHg 52%
    04:00 +24°C° 0 mm 10 m/S 747 mmHg 51%
    05:00 +24°C° 0 mm 10 m/S 747 mmHg 51%
    06:00 +24°C° 0 mm 11 m/S 748 mmHg 51%
    07:00 +26°C° 0 mm 10 m/S 748 mmHg 45%
    08:00 +28°C° 0 mm 10 m/S 748 mmHg 40%
    09:00 +31°C° 0 mm 10 m/S 748 mmHg 34%
    10:00 +32°C° 0 mm 9 m/S 748 mmHg 31%
    11:00 +33°C° 0 mm 9 m/S 749 mmHg 29%
    12:00 +34°C° 0 mm 9 m/S 749 mmHg 26%
    13:00 +35°C° 0 mm 9 m/S 749 mmHg 26%
    14:00 +35°C° 0 mm 9 m/S 749 mmHg 25%
    15:00 +35°C° 0 mm 8 m/S 749 mmHg 25%
    16:00 +34°C° 0 mm 8 m/S 749 mmHg 27%
    17:00 +33°C° 0 mm 8 m/S 749 mmHg 30%
    18:00 +32°C° 0 mm 8 m/S 750 mmHg 32%
    19:00 +29°C° 0 mm 7 m/S 750 mmHg 36%
    20:00 +27°C° 0 mm 6 m/S 751 mmHg 41%
    21:00 +26°C° 0 mm 6 m/S 752 mmHg 45%
    22:00 +25°C° 0 mm 5 m/S 752 mmHg 50%
    23:00 +23°C° 0 mm 4 m/S 753 mmHg 54%
    Mehr zeigen